Regional Weather Roundup
Issued by NWS Mobile, AL

Home | Current Version | Previous Version | Text Only | Print | Product List | Glossary On
Versions: 1 2 3 4 5 6 7 8 9 10 11 12 13 14 15 16 17 18 19 20 21 22 23 24 25 26 27 28 29 30 31 32 33 34 35 36 37 38 39 40 41 42 43 44 45 46 47 48 49 50
000
ASUS44 KMOB 251510
RWRMOB
REGIONAL WEATHER ROUNDUP
NATIONAL WEATHER SERVICE MOBILE AL
900 AM CST SUN JAN 25 2015

NOTE: "FAIR" INDICATES FEW OR NO CLOUDS BELOW 12,000 FEET WITH NO
      SIGNIFICANT WEATHER AND/OR OBSTRUCTIONS TO VISIBILITY.

  * THESE STATIONS ARE PART OF THE UNIVERSITY OF SOUTH ALABAMA
    MESONET AND ARE NOT UNDER NWS OR FAA QUALITY CONTROL.

ALZ061>064-251600-
COASTAL ALABAMA

CITY           SKY/WX    TMP DP  RH WIND       PRES   REMARKS
MOBILE REG APT MOSUNNY   48  43  82 SW9       30.04R
BROOKLEY FIELD SUNNY     51  43  74 SW5       30.06S
USA CAMPUS*    NOT AVBL
DOG RIVER*     NOT AVBL


CITY           SKY/WX    TMP DP  RH WIND       PRES   REMARKS
MOUNT VERNON*  NOT AVBL
SARALAND*      NOT AVBL
BAY MINETTE*   NOT AVBL
LOXLEY*        NOT AVBL
ROBERTSDALE*   NOT AVBL
FAIRHOPE*        N/A     52  45  76 SW7       30.05S
ELBERTA*         N/A     50  45  81 S3        30.04F
FOLEY*         NOT AVBL
GRAND BAY*     NOT AVBL
DAUPHIN ISLND* NOT AVBL
BON SCOUR NWR* NOT AVBL
GULF SHORES    SUNNY     53  46  76 SW3       30.05F

$$

ALZ051>060-251600-
INTERIOR SOUTHWEST AND SOUTH CENTRAL ALABAMA

CITY           SKY/WX    TMP DP  RH WIND       PRES   REMARKS
GREENVILLE     SUNNY     45  37  73 SW5       29.98S
EVERGREEN      SUNNY     44  38  79 S7        30.01S
CASTLEBERRY*   NOT AVBL
ATMORE*          N/A     46  43  87 SW6       30.05R
DIXIE*           N/A     48  39  71 S3        29.99F
ANDALUSIA/OPP  SUNNY     50  37  61 W6        30.02S
ANDALUSIA*       N/A     45  39  81 S5        30.00F
FLORALA APT    SUNNY     49  40  71 S7        30.04F
FLORALA*         N/A     46  39  76 SW2       30.01S

$$

FLZ001>006-251600-
WESTERN FLORIDA PANHANDLE

CITY           SKY/WX    TMP DP  RH WIND       PRES   REMARKS
PENSACOLA      SUNNY     50  42  74 SW10      30.05F
NAS PENSACOLA  SUNNY     54  46  74 SW8       30.05F
MILTON         SUNNY     48  41  76 SW9       30.04S
WHTNG S FIELD  SUNNY     48  43  82 S6        30.05S


CITY           SKY/WX    TMP DP  RH WIND       PRES   REMARKS
WALNUT HILL*   NOT AVBL
JAY*           NOT AVBL
CRESTVIEW      SUNNY     45  41  86 S6        30.07R
VALPARAISO     MOSUNNY   51  40  65 W8        30.06S
DESTIN         SUNNY     55  44  66 CALM      30.07R

$$

MSZ076-079-251600-
INTERIOR SOUTHEAST MISSISSIPPI

CITY           SKY/WX    TMP DP  RH WIND       PRES   REMARKS
LEAKESVILLE*   NOT AVBL
AGRICOLA*      NOT AVBL

$$

MARINE OBSERVATIONS

STATION/POSITION TIME  TEMP    WIND        PRES    WAVE
                       AIR SEA DIR/SP/G            HT/PER
                 (UTC) (F)     (DEG/KT/KT) (MB)    (FT/S)
PASCAGOULA       1500   53     240/  6/  9 1017.5R
PETIT BOIS ISLND 1500   54     240/ 13/ 15 1018.0R
GRAND BAY        1400   48     270/  3     1018.0S
KATRINA CUT      1400   54     230/ 12     1018.3F
CEDAR POINT      1400   51     230/ 11     1017.3F
E DAUPHIN ISLAND 1400   54     280/  3/  5 1017.6R
MIDDLE BAY LIGHT 1400   51     210/ 10     1016.6F
USCG MOBILE BAY  1500   48 55  240/  7/  9 1016.5R
STATE DOCKS      1500   51 50              1017.0R
MEAHER PARK      1400   48     200/  7     1017.6F
WEEKS BAY        1400   40                   N/A
FORT MORGAN      1500   54     240/ 13/ 15 1017.1F
12 S ORANGE BCH  1500   57 65  250/ 10/ 12 1017.6F   3/ 5
PENSACOLA BAY    1500   52 57  250/  4/  8 1018.0F
64 S DAUPHIN ISL 1401   58 70  260/ 14/ 19 1018.6    4/ 5

$$

SELECTED LOCATIONS ACROSS THE REGION

CITY           SKY/WX    TMP DP  RH WIND       PRES   REMARKS
NEW ORLEANS    MOSUNNY   53  45  74 SW8       30.04S
GULFPORT       SUNNY     52  45  77 SW8       30.04R
PASCAGOULA AP  SUNNY     52  47  83 SW10      30.05R
PASCAGOULA*    NOT AVBL
HATTIESBURG    SUNNY     48  41  76 S8        30.00F
LAUREL         SUNNY     46  30  53 SW6       29.99F
MERIDIAN       SUNNY     42  38  85 S12       29.95F
JACKSON        SUNNY     46  39  76 S8        29.93F
MONTGOMERY     SUNNY     47  37  68 SW6       29.99S
TROY           SUNNY     43  36  76 SW6       30.01F
KINSTON*       NOT AVBL
GENEVA*        NOT AVBL
ASHFORD*         N/A     45  39  81 S5        30.00F
DOTHAN         SUNNY     46  36  68 SW5       30.06F
PANAMA CITY    SUNNY     50  41  71 W3        30.06R

$$




USA.gov is the U.S. government's official web portal to all federal, state and local government web resources and services.